GLONASS-K 2

Last updated on Wed Jul 09 2025 00:02:32 GMT+0000 (Coordinated Universal Time)

1 40315U 14075A 25189.33358663 .00000109 00000+0 00000+0 0 9990 2 40315 63.6169 202.2755 0021878 212.0166 147.9042 2.13101485 82522
UTC large
Height (km)
Speed (km/s)
/
Latitude / Longitude
Inclination (degrees)
Orbital Period (minutes)
Azimuth
Elevation
Range (km)
Doppler Factor

Next 0 passes for location: London (51.5072 / 0.1276)

Sorry there are no passes over London.